カタログに戻る

SENTINEL 2A

運用中科学SSO
NORAD 40697·PAYLOAD·🇪🇺 EU

打ち上げ Jun 23, 2015 から Guiana Space Centre

Loading…

次のパス (今後24時間)

TLE

最新Source: Space-Track

元期: Sep 14, 2026, 15:43 UTC

1 40697U 15028A   26257.65522179  .00000132  00000-0  66914-4 0  9997
2 40697  98.5622 331.2059 0001175  83.5171 276.6146 14.30821374586523

AllMySatでSENTINEL 2Aをリアルタイム追跡

Download on the App Store